Location: Unspecified
(52.4292°N, 19.3359°E)
Time: 00:21:57
(UTC+02:00)

Transit 2A Rocket - Pass Details

Date: 28 May 2024
Orbit: 583 x 910 km, 66.7° (Epoch: 12 June)

Event Time Altitude Azimuth Distance (km) Brightness Sun altitude
Rises 11:25:54 0° 320° (NW) 3,405 8.0 56.0°
Reaches altitude 10° 11:28:19 10° 319° (NW) 2,505 7.4 56.2°
Maximum altitude 11:34:10 76° 235° (SW) 925 6.6 56.6°
Drops below altitude 10° 11:40:14 10° 151° (SSE) 2,590 8.5 57.1°
Sets 11:42:46 0° 149° (SSE) 3,528 8.9 57.2°
